Location: ????????
(54.9045°N, 39.1041°E)
Time: 03:44:16
(UTC+00:00)

SAR-Lupe-1 - Pass Details

Date: 14 April 2024
Orbit: 479 x 482 km, 98.1° (Epoch: 04 May)

Event Time Altitude Azimuth Distance (km) Brightness Sun altitude
Rises 00:21:56 0° 14° (NNE) 2,562 8.8 -15.6°
Reaches altitude 10° 00:24:01 10° 13° (NNE) 1,677 7.7 -15.4°
Maximum altitude 00:27:37 78° 288° (WNW) 500 4.0 -15.0°
Enters shadow 00:29:27 27° 205° (SSW) 959 5.0 -14.8°
